| time (UTC) | temp F | wind direction | speed MPH | gust MPH | rain 1hr in | rain 24hr in | rain mn in | humidity % | barometer mb |
| 20260505102202 | 50 | 0 | 0.0 | 0.0 | 0.00 | 0.00 | 0.00 | 98 | 1018.0 |
| 20260505101701 | 50 | 0 | 0.0 | 0.0 | 0.00 | 0.00 | 0.00 | 98 | 1017.0 |
| 20260505101202 | 50 | 0 | 0.0 | 0.0 | 0.00 | 0.00 | 0.00 | 97 | 1017.0 |
| 20260505100702 | 51 | 0 | 0.0 | 0.0 | 0.00 | 0.00 | 0.00 | 97 | 1017.0 |
| 20260505100202 | 51 | 0 | 0.0 | 0.0 | 0.00 | 0.00 | 0.00 | 97 | 1017.0 |
| 20260505095702 | 51 | 0 | 0.0 | 0.0 | 0.00 | 0.00 | 0.00 | 97 | 1017.0 |
| 20260505095201 | 51 | 0 | 0.0 | 0.0 | 0.00 | 0.00 | 0.00 | 97 | 1017.0 |
| 20260505094701 | 51 | 0 | 0.0 | 0.0 | 0.00 | 0.00 | 0.00 | 97 | 1017.0 |
| 20260505094201 | 51 | 0 | 0.0 | 0.0 | 0.00 | 0.00 | 0.00 | 97 | 1017.0 |
| 20260505093659 | 51 | 0 | 0.0 | 0.0 | 0.00 | 0.00 | 0.00 | 97 | 1017.0 |
| 20260505093201 | 51 | 0 | 0.0 | 0.0 | 0.00 | 0.00 | 0.00 | 97 | 1017.0 |
| 20260505092701 | 51 | 0 | 0.0 | 0.0 | 0.00 | 0.00 | 0.00 | 97 | 1017.0 |
| 20260505092201 | 51 | 0 | 0.0 | 0.0 | 0.00 | 0.00 | 0.00 | 96 | 1017.0 |
| 20260505091701 | 51 | 0 | 0.0 | 0.0 | 0.00 | 0.00 | 0.00 | 96 | 1017.0 |
| 20260505091201 | 51 | 0 | 0.0 | 0.0 | 0.00 | 0.00 | 0.00 | 96 | 1017.0 |
| 20260505090703 | 52 | 0 | 0.0 | 0.0 | 0.00 | 0.00 | 0.00 | 96 | 1017.0 |
| 20260505090159 | 52 | 0 | 0.0 | 0.0 | 0.00 | 0.00 | 0.00 | 96 | 1017.0 |
| 20260505085701 | 52 | 0 | 0.0 | 0.0 | 0.00 | 0.00 | 0.00 | 96 | 1017.0 |
| 20260505085201 | 52 | 0 | 0.0 | 0.0 | 0.00 | 0.00 | 0.00 | 95 | 1017.0 |
| 20260505084659 | 52 | 0 | 0.0 | 0.0 | 0.00 | 0.00 | 0.00 | 95 | 1017.0 |
| 20260505084204 | 52 | 0 | 0.0 | 0.0 | 0.00 | 0.00 | 0.00 | 95 | 1017.0 |
| 20260505083700 | 52 | 0 | 0.0 | 0.0 | 0.00 | 0.00 | 0.00 | 95 | 1017.0 |
| 20260505083201 | 53 | 0 | 0.0 | 0.0 | 0.00 | 0.00 | 0.00 | 94 | 1017.0 |
| 20260505082701 | 53 | 0 | 0.0 | 0.0 | 0.00 | 0.00 | 0.00 | 94 | 1017.0 |
| 20260505082202 | 53 | 0 | 0.0 | 0.0 | 0.00 | 0.00 | 0.00 | 94 | 1017.0 |
| 20260505081701 | 53 | 0 | 0.0 | 0.0 | 0.00 | 0.00 | 0.00 | 94 | 1017.0 |
| 20260505081201 | 53 | 0 | 0.0 | 0.0 | 0.00 | 0.00 | 0.00 | 94 | 1017.0 |
| 20260505080701 | 53 | 0 | 0.0 | 0.0 | 0.00 | 0.00 | 0.00 | 93 | 1017.0 |
| 20260505080201 | 54 | 0 | 0.0 | 0.0 | 0.00 | 0.00 | 0.00 | 93 | 1017.0 |
| 20260505075701 | 54 | 0 | 0.0 | 0.0 | 0.00 | 0.00 | 0.00 | 93 | 1017.0 |
| 20260505075201 | 54 | 0 | 0.0 | 0.0 | 0.00 | 0.00 | 0.00 | 92 | 1017.0 |
| 20260505074705 | 54 | 191 | 0.0 | 1.0 | 0.00 | 0.00 | 0.00 | 93 | 1017.0 |
| 20260505074201 | 54 | 0 | 0.0 | 0.0 | 0.00 | 0.00 | 0.00 | 92 | 1017.0 |
| 20260505073702 | 55 | 221 | 0.0 | 1.0 | 0.00 | 0.00 | 0.00 | 92 | 1016.0 |
| 20260505073201 | 55 | 0 | 0.0 | 0.0 | 0.00 | 0.00 | 0.00 | 92 | 1016.0 |
| 20260505072701 | 54 | 0 | 0.0 | 0.0 | 0.00 | 0.00 | 0.00 | 92 | 1016.0 |
| 20260505072202 | 54 | 0 | 0.0 | 0.0 | 0.00 | 0.00 | 0.00 | 93 | 1016.0 |
| 20260505071701 | 54 | 227 | 0.0 | 1.0 | 0.00 | 0.00 | 0.00 | 93 | 1016.0 |
| 20260505071200 | 54 | 0 | 0.0 | 0.0 | 0.00 | 0.00 | 0.00 | 92 | 1016.0 |
| 20260505070701 | 54 | 207 | 0.0 | 1.0 | 0.00 | 0.00 | 0.00 | 92 | 1016.0 |
| 20260505070200 | 54 | 0 | 0.0 | 0.0 | 0.00 | 0.00 | 0.00 | 92 | 1016.0 |
| 20260505065659 | 54 | 0 | 0.0 | 0.0 | 0.00 | 0.00 | 0.00 | 91 | 1016.0 |
| 20260505065200 | 54 | 0 | 0.0 | 0.0 | 0.00 | 0.00 | 0.00 | 91 | 1016.0 |
| 20260505064701 | 54 | 0 | 0.0 | 0.0 | 0.00 | 0.00 | 0.00 | 91 | 1016.0 |
| 20260505064159 | 54 | 206 | 0.0 | 2.0 | 0.00 | 0.00 | 0.00 | 91 | 1016.0 |
| 20260505063701 | 54 | 287 | 0.0 | 1.0 | 0.00 | 0.00 | 0.00 | 90 | 1016.0 |
| 20260505063200 | 55 | 0 | 0.0 | 0.0 | 0.00 | 0.00 | 0.00 | 89 | 1016.0 |
| 20260505062701 | 55 | 0 | 0.0 | 0.0 | 0.00 | 0.00 | 0.00 | 89 | 1016.0 |
| 20260505062159 | 55 | 0 | 0.0 | 0.0 | 0.00 | 0.00 | 0.00 | 88 | 1016.0 |
| 20260505061701 | 55 | 0 | 0.0 | 0.0 | 0.00 | 0.00 | 0.00 | 88 | 1017.0 |
| 20260505061201 | 56 | 0 | 0.0 | 0.0 | 0.00 | 0.00 | 0.00 | 87 | 1017.0 |
| 20260505060704 | 56 | 0 | 0.0 | 0.0 | 0.00 | 0.00 | 0.00 | 87 | 1017.0 |
| 20260505060200 | 56 | 0 | 0.0 | 0.0 | 0.00 | 0.00 | 0.00 | 87 | 1017.0 |
| 20260505055700 | 55 | 210 | 1.0 | 2.0 | 0.00 | 0.00 | 0.00 | 88 | 1017.0 |
| 20260505055159 | 55 | 201 | 1.0 | 3.0 | 0.00 | 0.00 | 0.00 | 89 | 1017.0 |
| 20260505054700 | 55 | 0 | 0.0 | 0.0 | 0.00 | 0.00 | 0.00 | 89 | 1017.0 |
| 20260505054200 | 55 | 0 | 0.0 | 0.0 | 0.00 | 0.00 | 0.00 | 89 | 1017.0 |
| 20260505053701 | 55 | 0 | 0.0 | 0.0 | 0.00 | 0.00 | 0.00 | 89 | 1017.0 |
| 20260505053159 | 55 | 0 | 0.0 | 0.0 | 0.00 | 0.00 | 0.00 | 89 | 1017.0 |
| 20260505052659 | 55 | 0 | 0.0 | 0.0 | 0.00 | 0.00 | 0.00 | 89 | 1017.0 |
| 20260505052200 | 55 | 0 | 0.0 | 0.0 | 0.00 | 0.00 | 0.00 | 89 | 1017.0 |
| 20260505051700 | 55 | 0 | 0.0 | 0.0 | 0.00 | 0.00 | 0.00 | 89 | 1017.0 |
| 20260505051159 | 55 | 0 | 0.0 | 0.0 | 0.00 | 0.00 | 0.00 | 89 | 1017.0 |
| 20260505050659 | 55 | 0 | 0.0 | 0.0 | 0.00 | 0.00 | 0.00 | 89 | 1017.0 |
| 20260505050201 | 55 | 0 | 0.0 | 0.0 | 0.00 | 0.00 | 0.00 | 88 | 1017.0 |
| 20260505041700 | 57 | 0 | 0.0 | 0.0 | 0.00 | 0.00 | 0.00 | 83 | 1017.0 |
| 20260505041159 | 58 | 0 | 0.0 | 0.0 | 0.00 | 0.00 | 0.00 | 82 | 1017.0 |
| 20260505040659 | 58 | 0 | 0.0 | 0.0 | 0.00 | 0.00 | 0.00 | 81 | 1017.0 |
| 20260505040159 | 59 | 0 | 0.0 | 0.0 | 0.00 | 0.00 | 0.00 | 80 | 1017.0 |
| 20260505035659 | 59 | 0 | 0.0 | 0.0 | 0.00 | 0.00 | 0.00 | 79 | 1017.0 |
| 20260505035159 | 60 | 213 | 0.0 | 1.0 | 0.00 | 0.00 | 0.00 | 78 | 1017.0 |
| 20260505034659 | 60 | 0 | 0.0 | 0.0 | 0.00 | 0.00 | 0.00 | 77 | 1017.0 |
| 20260505034201 | 61 | 0 | 0.0 | 0.0 | 0.00 | 0.00 | 0.00 | 76 | 1017.0 |
| 20260505033659 | 61 | 0 | 0.0 | 0.0 | 0.00 | 0.00 | 0.00 | 76 | 1017.0 |
| 20260505033201 | 61 | 197 | 0.0 | 2.0 | 0.00 | 0.00 | 0.00 | 75 | 1017.0 |
| 20260505032659 | 61 | 194 | 0.0 | 0.0 | 0.00 | 0.00 | 0.00 | 74 | 1017.0 |
| 20260505032200 | 62 | 195 | 1.0 | 2.0 | 0.00 | 0.00 | 0.00 | 74 | 1017.0 |
| 20260505031700 | 62 | 198 | 2.0 | 3.0 | 0.00 | 0.00 | 0.00 | 74 | 1017.0 |
| 20260505031159 | 62 | 207 | 2.0 | 3.0 | 0.00 | 0.00 | 0.00 | 73 | 1017.0 |
| 20260505030700 | 62 | 185 | 1.0 | 2.0 | 0.00 | 0.00 | 0.00 | 73 | 1017.0 |
| 20260505030200 | 62 | 191 | 2.0 | 3.0 | 0.00 | 0.00 | 0.00 | 72 | 1017.0 |
| 20260505025701 | 63 | 199 | 2.0 | 4.0 | 0.00 | 0.00 | 0.00 | 72 | 1017.0 |
| 20260505025159 | 63 | 195 | 2.0 | 4.0 | 0.00 | 0.00 | 0.00 | 71 | 1017.0 |
| 20260505024659 | 63 | 213 | 5.0 | 7.0 | 0.00 | 0.00 | 0.00 | 71 | 1017.0 |
| 20260505024200 | 63 | 213 | 3.0 | 5.0 | 0.00 | 0.00 | 0.00 | 71 | 1017.0 |
| 20260505023700 | 63 | 211 | 2.0 | 3.0 | 0.00 | 0.00 | 0.00 | 70 | 1017.0 |
| 20260505023159 | 64 | 208 | 2.0 | 6.0 | 0.00 | 0.00 | 0.00 | 70 | 1017.0 |
| 20260505022659 | 64 | 192 | 4.0 | 5.0 | 0.00 | 0.00 | 0.00 | 69 | 1017.0 |
| 20260505022159 | 64 | 196 | 5.0 | 9.0 | 0.00 | 0.00 | 0.00 | 69 | 1017.0 |
| 20260505021700 | 64 | 206 | 2.0 | 5.0 | 0.00 | 0.00 | 0.00 | 69 | 1017.0 |
| 20260505021201 | 64 | 189 | 5.0 | 8.0 | 0.00 | 0.00 | 0.00 | 68 | 1017.0 |
| 20260505020700 | 64 | 200 | 6.0 | 8.0 | 0.00 | 0.00 | 0.00 | 68 | 1017.0 |
| 20260505020203 | 64 | 185 | 4.0 | 7.0 | 0.00 | 0.00 | 0.00 | 68 | 1017.0 |
| 20260505015659 | 64 | 188 | 5.0 | 7.0 | 0.00 | 0.00 | 0.00 | 67 | 1017.0 |
| 20260505015159 | 64 | 186 | 4.0 | 6.0 | 0.00 | 0.00 | 0.00 | 67 | 1017.0 |
| 20260505014659 | 65 | 155 | 3.0 | 4.0 | 0.00 | 0.00 | 0.00 | 67 | 1017.0 |
| 20260505014200 | 65 | 188 | 4.0 | 5.0 | 0.00 | 0.00 | 0.00 | 67 | 1017.0 |
| 20260505013659 | 65 | 170 | 7.0 | 10.0 | 0.00 | 0.00 | 0.00 | 67 | 1017.0 |
| 20260505013159 | 65 | 205 | 4.0 | 7.0 | 0.00 | 0.00 | 0.00 | 67 | 1017.0 |
| 20260505012659 | 65 | 191 | 4.0 | 6.0 | 0.00 | 0.00 | 0.00 | 67 | 1017.0 |
| 20260505012159 | 65 | 183 | 6.0 | 9.0 | 0.00 | 0.00 | 0.00 | 66 | 1017.0 |
| 20260505011701 | 65 | 204 | 4.0 | 6.0 | 0.00 | 0.00 | 0.00 | 66 | 1016.0 |
| 20260505011200 | 65 | 177 | 5.0 | 8.0 | 0.00 | 0.00 | 0.00 | 65 | 1016.0 |
| 20260505010659 | 65 | 184 | 6.0 | 8.0 | 0.00 | 0.00 | 0.00 | 65 | 1016.0 |
| 20260505010200 | 65 | 182 | 5.0 | 7.0 | 0.00 | 0.00 | 0.00 | 65 | 1016.0 |
| 20260505005659 | 66 | 192 | 7.0 | 10.0 | 0.00 | 0.00 | 0.00 | 64 | 1016.0 |
| 20260505005159 | 66 | 202 | 6.0 | 11.0 | 0.00 | 0.00 | 0.00 | 64 | 1016.0 |
| 20260505004700 | 66 | 175 | 6.0 | 9.0 | 0.00 | 0.00 | 0.00 | 64 | 1016.0 |
| 20260505004159 | 66 | 186 | 7.0 | 14.0 | 0.00 | 0.00 | 0.00 | 64 | 1016.0 |
| 20260505003659 | 66 | 190 | 6.0 | 9.0 | 0.00 | 0.00 | 0.00 | 63 | 1016.0 |
| 20260505003201 | 66 | 200 | 5.0 | 8.0 | 0.00 | 0.00 | 0.00 | 63 | 1016.0 |
| 20260505002700 | 66 | 194 | 4.0 | 7.0 | 0.00 | 0.00 | 0.00 | 62 | 1016.0 |
| 20260505002159 | 66 | 186 | 5.0 | 7.0 | 0.00 | 0.00 | 0.00 | 61 | 1016.0 |
| 20260505001659 | 66 | 188 | 2.0 | 4.0 | 0.00 | 0.00 | 0.00 | 61 | 1016.0 |
| 20260505001159 | 67 | 174 | 3.0 | 6.0 | 0.00 | 0.00 | 0.00 | 61 | 1016.0 |
| 20260505000659 | 67 | 205 | 3.0 | 5.0 | 0.00 | 0.00 | 0.00 | 60 | 1016.0 |
| 20260505000159 | 67 | 183 | 3.0 | 8.0 | 0.00 | 0.00 | 0.00 | 60 | 1016.0 |
| 20260504235659 | 67 | 176 | 6.0 | 8.0 | 0.00 | 0.00 | 0.00 | 60 | 1015.0 |
| 20260504235159 | 67 | 193 | 4.0 | 7.0 | 0.00 | 0.00 | 0.00 | 60 | 1015.0 |
| 20260504234659 | 68 | 207 | 3.0 | 6.0 | 0.00 | 0.00 | 0.00 | 59 | 1015.0 |
| 20260504234159 | 68 | 191 | 4.0 | 9.0 | 0.00 | 0.00 | 0.00 | 59 | 1015.0 |
| 20260504233700 | 68 | 189 | 5.0 | 8.0 | 0.00 | 0.00 | 0.00 | 58 | 1015.0 |
| 20260504233201 | 69 | 192 | 8.0 | 11.0 | 0.00 | 0.00 | 0.00 | 58 | 1015.0 |
| 20260504232659 | 69 | 179 | 7.0 | 11.0 | 0.00 | 0.00 | 0.00 | 57 | 1015.0 |
| 20260504232159 | 69 | 185 | 8.0 | 13.0 | 0.00 | 0.00 | 0.00 | 57 | 1015.0 |
| 20260504231702 | 69 | 190 | 6.0 | 11.0 | 0.00 | 0.00 | 0.00 | 57 | 1015.0 |
| 20260504231201 | 69 | 175 | 8.0 | 11.0 | 0.00 | 0.00 | 0.00 | 57 | 1015.0 |
| 20260504230659 | 70 | 203 | 7.0 | 9.0 | 0.00 | 0.00 | 0.00 | 57 | 1015.0 |
| 20260504230200 | 70 | 195 | 7.0 | 10.0 | 0.00 | 0.00 | 0.00 | 57 | 1015.0 |
| 20260504225659 | 71 | 171 | 6.0 | 8.0 | 0.00 | 0.00 | 0.00 | 57 | 1015.0 |
| 20260504225201 | 71 | 184 | 7.0 | 10.0 | 0.00 | 0.00 | 0.00 | 57 | 1015.0 |
| 20260504224701 | 71 | 182 | 4.0 | 7.0 | 0.00 | 0.00 | 0.00 | 57 | 1015.0 |
| 20260504224159 | 72 | 190 | 7.0 | 11.0 | 0.00 | 0.00 | 0.00 | 56 | 1015.0 |
| 20260504223659 | 72 | 186 | 6.0 | 9.0 | 0.00 | 0.00 | 0.00 | 56 | 1015.0 |
| 20260504223159 | 72 | 188 | 7.0 | 10.0 | 0.00 | 0.00 | 0.00 | 56 | 1015.0 |
| 20260504222705 | 73 | 198 | 7.0 | 10.0 | 0.00 | 0.00 | 0.00 | 55 | 1015.0 |
| 20260504222201 | 73 | 194 | 6.0 | 9.0 | 0.00 | 0.00 | 0.00 | 55 | 1015.0 |
| 20260504221701 | 73 | 203 | 7.0 | 10.0 | 0.00 | 0.00 | 0.00 | 56 | 1015.0 |
| 20260504221201 | 73 | 182 | 6.0 | 9.0 | 0.00 | 0.00 | 0.00 | 56 | 1015.0 |
| 20260504220659 | 73 | 183 | 7.0 | 13.0 | 0.00 | 0.00 | 0.00 | 55 | 1015.0 |
| 20260504220201 | 73 | 201 | 7.0 | 12.0 | 0.00 | 0.00 | 0.00 | 56 | 1015.0 |
| 20260504215700 | 73 | 170 | 6.0 | 11.0 | 0.00 | 0.00 | 0.00 | 56 | 1015.0 |
| 20260504215200 | 74 | 186 | 7.0 | 14.0 | 0.00 | 0.00 | 0.00 | 55 | 1015.0 |
| 20260504214701 | 74 | 175 | 5.0 | 9.0 | 0.00 | 0.00 | 0.00 | 56 | 1015.0 |
| 20260504214159 | 74 | 192 | 8.0 | 13.0 | 0.00 | 0.00 | 0.00 | 55 | 1015.0 |
| 20260504213701 | 74 | 188 | 5.0 | 8.0 | 0.00 | 0.00 | 0.00 | 56 | 1015.0 |
| 20260504213200 | 74 | 172 | 6.0 | 11.0 | 0.00 | 0.00 | 0.00 | 56 | 1015.0 |
| 20260504212701 | 74 | 189 | 7.0 | 9.0 | 0.00 | 0.00 | 0.00 | 57 | 1015.0 |
| 20260504212201 | 74 | 184 | 10.0 | 14.0 | 0.00 | 0.00 | 0.00 | 56 | 1015.0 |
| 20260504211710 | 75 | 195 | 8.0 | 13.0 | 0.00 | 0.00 | 0.00 | 55 | 1015.0 |
| 20260504211201 | 75 | 174 | 4.0 | 7.0 | 0.00 | 0.00 | 0.00 | 56 | 1015.0 |
| 20260504210701 | 75 | 185 | 7.0 | 17.0 | 0.00 | 0.00 | 0.00 | 55 | 1015.0 |
| 20260504210202 | 76 | 190 | 8.0 | 11.0 | 0.00 | 0.00 | 0.00 | 55 | 1015.0 |
| 20260504205659 | 76 | 183 | 6.0 | 10.0 | 0.00 | 0.00 | 0.00 | 55 | 1015.0 |
| 20260504205201 | 76 | 176 | 4.0 | 7.0 | 0.00 | 0.00 | 0.00 | 56 | 1015.0 |
| 20260504204701 | 76 | 196 | 6.0 | 8.0 | 0.00 | 0.00 | 0.00 | 55 | 1015.0 |
| 20260504204200 | 76 | 196 | 8.0 | 12.0 | 0.00 | 0.00 | 0.00 | 54 | 1015.0 |
| 20260504203659 | 76 | 183 | 4.0 | 7.0 | 0.00 | 0.00 | 0.00 | 56 | 1015.0 |
| 20260504203201 | 76 | 185 | 10.0 | 12.0 | 0.00 | 0.00 | 0.00 | 53 | 1015.0 |
| 20260504202701 | 76 | 180 | 7.0 | 10.0 | 0.00 | 0.00 | 0.00 | 54 | 1015.0 |
| 20260504202201 | 76 | 201 | 4.0 | 8.0 | 0.00 | 0.00 | 0.00 | 54 | 1015.0 |
| 20260504201703 | 76 | 198 | 8.0 | 11.0 | 0.00 | 0.00 | 0.00 | 54 | 1015.0 |
| 20260504201202 | 76 | 207 | 9.0 | 11.0 | 0.00 | 0.00 | 0.00 | 52 | 1015.0 |
| 20260504200659 | 77 | 192 | 4.0 | 6.0 | 0.00 | 0.00 | 0.00 | 45 | 1015.0 |
| 20260504200201 | 78 | 164 | 5.0 | 6.0 | 0.00 | 0.00 | 0.00 | 42 | 1015.0 |
| 20260504195659 | 79 | 193 | 8.0 | 11.0 | 0.00 | 0.00 | 0.00 | 41 | 1015.0 |
| 20260504195200 | 79 | 202 | 6.0 | 9.0 | 0.00 | 0.00 | 0.00 | 42 | 1015.0 |
| 20260504194701 | 78 | 188 | 7.0 | 11.0 | 0.00 | 0.00 | 0.00 | 42 | 1015.0 |
| 20260504194201 | 78 | 178 | 5.0 | 10.0 | 0.00 | 0.00 | 0.00 | 42 | 1015.0 |
| 20260504193702 | 78 | 168 | 7.0 | 11.0 | 0.00 | 0.00 | 0.00 | 41 | 1015.0 |
| 20260504193200 | 79 | 186 | 8.0 | 14.0 | 0.00 | 0.00 | 0.00 | 41 | 1015.0 |
| 20260504192701 | 79 | 229 | 5.0 | 8.0 | 0.00 | 0.00 | 0.00 | 41 | 1015.0 |
| 20260504192201 | 78 | 189 | 3.0 | 5.0 | 0.00 | 0.00 | 0.00 | 45 | 1015.0 |
| 20260504191701 | 78 | 159 | 6.0 | 7.0 | 0.00 | 0.00 | 0.00 | 43 | 1015.0 |
| 20260504191159 | 78 | 192 | 3.0 | 6.0 | 0.00 | 0.00 | 0.00 | 43 | 1016.0 |
| 20260504190700 | 78 | 167 | 6.0 | 11.0 | 0.00 | 0.00 | 0.00 | 41 | 1016.0 |
| 20260504190200 | 78 | 247 | 4.0 | 9.0 | 0.00 | 0.00 | 0.00 | 40 | 1016.0 |
| 20260504185701 | 77 | 220 | 6.0 | 8.0 | 0.00 | 0.00 | 0.00 | 43 | 1016.0 |
| 20260504185200 | 77 | 193 | 5.0 | 8.0 | 0.00 | 0.00 | 0.00 | 41 | 1016.0 |
| 20260504184707 | 78 | 197 | 4.0 | 6.0 | 0.00 | 0.00 | 0.00 | 43 | 1016.0 |
| 20260504184202 | 78 | 210 | 6.0 | 7.0 | 0.00 | 0.00 | 0.00 | 43 | 1016.0 |
| 20260504183700 | 77 | 216 | 5.0 | 9.0 | 0.00 | 0.00 | 0.00 | 42 | 1016.0 |
| 20260504183201 | 77 | 196 | 6.0 | 8.0 | 0.00 | 0.00 | 0.00 | 43 | 1016.0 |
| 20260504182702 | 77 | 208 | 4.0 | 6.0 | 0.00 | 0.00 | 0.00 | 43 | 1016.0 |
| 20260504182200 | 77 | 167 | 10.0 | 16.0 | 0.00 | 0.00 | 0.00 | 43 | 1016.0 |
| 20260504181700 | 77 | 221 | 7.0 | 9.0 | 0.00 | 0.00 | 0.00 | 44 | 1016.0 |
| 20260504181201 | 77 | 178 | 6.0 | 9.0 | 0.00 | 0.00 | 0.00 | 45 | 1016.0 |
| 20260504180701 | 76 | 186 | 3.0 | 5.0 | 0.00 | 0.00 | 0.00 | 45 | 1016.0 |
| 20260504180202 | 76 | 183 | 6.0 | 11.0 | 0.00 | 0.00 | 0.00 | 44 | 1016.0 |
| 20260504175701 | 76 | 179 | 7.0 | 12.0 | 0.00 | 0.00 | 0.00 | 44 | 1016.0 |
| 20260504175204 | 76 | 175 | 5.0 | 8.0 | 0.00 | 0.00 | 0.00 | 44 | 1017.0 |
| 20260504174702 | 76 | 208 | 4.0 | 6.0 | 0.00 | 0.00 | 0.00 | 46 | 1016.0 |
| 20260504174200 | 76 | 187 | 9.0 | 13.0 | 0.00 | 0.00 | 0.00 | 43 | 1017.0 |
| 20260504173701 | 76 | 179 | 4.0 | 7.0 | 0.00 | 0.00 | 0.00 | 44 | 1017.0 |
| 20260504173159 | 76 | 197 | 6.0 | 10.0 | 0.00 | 0.00 | 0.00 | 43 | 1017.0 |
| 20260504172703 | 76 | 206 | 6.0 | 9.0 | 0.00 | 0.00 | 0.00 | 44 | 1017.0 |
| 20260504172202 | 76 | 226 | 4.0 | 8.0 | 0.00 | 0.00 | 0.00 | 44 | 1017.0 |
| 20260504171704 | 75 | 263 | 6.0 | 9.0 | 0.00 | 0.00 | 0.00 | 46 | 1017.0 |
| 20260504171159 | 75 | 184 | 5.0 | 10.0 | 0.00 | 0.00 | 0.00 | 44 | 1017.0 |
| 20260504170700 | 75 | 170 | 8.0 | 11.0 | 0.00 | 0.00 | 0.00 | 44 | 1017.0 |
| 20260504170200 | 76 | 179 | 6.0 | 9.0 | 0.00 | 0.00 | 0.00 | 44 | 1017.0 |
| 20260504160216 | 73 | 220 | 6.0 | 9.0 | 0.00 | 0.00 | 0.00 | 52 | 1018.0 |
| 20260504150702 | 71 | 178 | 5.0 | 8.0 | 0.00 | 0.00 | 0.00 | 55 | 1018.0 |
| 20260504150202 | 71 | 213 | 6.0 | 9.0 | 0.00 | 0.00 | 0.00 | 56 | 1018.0 |
| 20260504141201 | 69 | 196 | 6.0 | 10.0 | 0.00 | 0.00 | 0.00 | 60 | 1018.0 |
| 20260504140703 | 69 | 172 | 3.0 | 6.0 | 0.00 | 0.00 | 0.00 | 62 | 1018.0 |
| 20260504140200 | 68 | 193 | 2.0 | 4.0 | 0.00 | 0.00 | 0.00 | 65 | 1018.0 |
| 20260504130700 | 62 | 173 | 5.0 | 6.0 | 0.00 | 0.00 | 0.00 | 73 | 1018.0 |
| 20260504130202 | 62 | 178 | 4.0 | 7.0 | 0.00 | 0.00 | 0.00 | 75 | 1019.0 |
| 20260504120201 | 54 | 193 | 3.0 | 4.0 | 0.00 | 0.00 | 0.00 | 89 | 1019.0 |
| 20260504110703 | 45 | 0 | 0.0 | 0.0 | 0.00 | 0.00 | 0.00 | 99 | 1019.0 |
| 20260504110201 | 45 | 0 | 0.0 | 0.0 | 0.00 | 0.00 | 0.00 | 99 | 1019.0 |